Temp
45 43 40 43 45 43 42 38 38 41 46 43 43 43 42 40 38 36 36 36 37 38 40 41 41 41 41 41 42 43 43 44 47 45 45 47 45 48 50 50 49 49 50 52
42 39 47 47 45 44 40 37 37 42 44 44 41 41 38 38 36 36 36 36 36 37 38 39 39 39 38 38 40 41 42 42 43 44 43 43 42 43 45 46 46 46 46 47
40 46 48 47 42 41 38 37 37 41 40 39 38 37 36 36 37 38 37 37 37 36 36 36 36 35 36 36 36 39 40 41 41 43 43 42 42 41 41 40 40 40 41 41
42 46 46 41 41 43 36 43 42 40 36 32 36 29 34 34 33 35 35 33 34 34 35 36 35 34 34 34 35 38 39 40 41 42 40 38 37 36 34 36 37 39 39 39
42 42 42 41 43 45 41 42 40 38 33 31 30 29 33 33 30 32 33 34 33 34 34 34 34 35 35 34 33 34 37 38 38 38 39 38 36 35 34 35 35 36 37 37
43 45 45 45 43 44 44 40 37 32 31 24 30 32 31 32 34 32 33 34 35 34 34 34 35 35 34 33 33 33 36 35 36 36 36 35 34 34 34 33 33 33 34 35
40 42 43 45 41 41 40 37 29 25 23 25 28 27 34 37 35 36 35 34 34 34 33 33 33 33 33 32 33 35 34 33 33 34 34 33 32 33 32 32 31 32 32 32
36 34 42 46 42 40 37 38 28 19 20 23 30 26 34 34 34 37 38 35 34 33 34 33 34 33 33 33 32 32 32 32 32 33 32 32 32 31 31 32 31 31 31 32
34 36 41 42 42 42 35 33 36 28 20 21 27 31 32 33 32 32 33 33 32 33 33 34 34 33 33 32 32 32 32 32 32 32 31 31 31 31 30 30 30 30 30 35
41 32 38 39 41 40 38 40 31 28 16 13 25 26 31 30 31 32 31 32 33 34 34 34 34 34 34 33 33 32 33 32 32 32 31 31 30 30 30 30 29 28 29 29
40 38 33 38 35 35 34 33 32 32 26 18 14 25 34 36 33 32 33 35 34 34 33 34 34 34 33 32 32 32 32 31 31 31 30 30 30 30 30 29 28 28 28 28
42 36 27 33 35 36 36 35 35 29 25 24 25 30 36 35 36 36 36 36 35 35 34 33 33 33 32 32 32 32 30 30 31 31 31 30 30 29 29 28 27 27 26 27
42 33 21 27 32 33 32 34 35 32 27 22 21 26 36 34 35 35 35 35 35 35 33 32 32 32 33 32 31 31 31 31 31 31 30 30 29 28 28 27 27 27 26 25
46 35 30 29 31 33 30 32 32 31 22 25 31 35 31 33 34 33 35 35 35 34 34 33 32 31 31 31 31 30 31 31 31 30 29 29 28 27 26 26 25 25 24 23
41 34 30 29 30 29 29 31 31 29 35 29 34 32 33 36 35 34 35 35 35 34 32 31 31 31 30 31 31 31 30 30 29 28 28 27 27 27 25 24 23 23 23 22
35 27 27 22 29 29 28 30 29 32 29 27 29 30 38 33 33 34 35 35 34 33 32 32 33 32 32 32 31 32 29 29 29 27 27 27 25 24 23 22 21 21 20 19
31 26 23 21 23 24 25 25 29 29 30 31 27 35 26 28 33 33 33 32 33 33 33 32 32 33 33 32 33 30 29 27 26 26 25 23 21 18 19 19 18 17 15 16
27 24 24 15 17 17 28 25 27 30 32 30 25 24 27 29 29 31 31 31 32 33 33 32 31 31 32 31 30 29 27 25 24 20 17 18 17 15 17 15 14 13 14 12
32 28 17 18 15 21 27 25 25 25 26 28 28 28 29 28 28 26 32 30 31 31 32 32 32 31 30 29 27 25 23 23 21 19 18 16 14 10 12 7 10 11 9 9
30 30 31 13 16 13 22 24 28 30 19 23 25 23 24 26 17 24 30 31 31 32 32 32 31 30 29 26 24 22 20 19 17 18 17 15 12 5 4 8 6 7 5 9
20 21 23 16 19 19 25 26 30 16 20 16 23 24 23 23 26 31 31 30 31 31 31 31 29 28 27 22 21 20 18 16 16 14 13 12 10 4 6 3 4 2 2 6
17 18 17 18 15 14 25 26 23 28 28 26 26 28 27 29 31 30 30 30 30 30 30 30 24 24 20 20 20 18 16 15 12 11 11 7 5 7 7 -5 -1 -3 -3 -2
18 21 17 22 20 27 29 29 32 32 27 28 28 29 30 29 28 30 28 28 29 28 29 22 22 19 16 17 16 14 14 12 10 5 2 3 5 5 3 -3 1 -1 -4 -4
22 25 19 21 24 26 29 30 30 31 31 32 31 30 28 28 29 29 27 27 27 25 25 19 17 17 15 12 14 10 11 10 -1 -1 3 6 3 4 4 4 3 -1 -3 -2
25 24 18 19 26 27 29 30 33 31 30 29 29 30 30 27 27 27 26 24 25 24 19 18 18 18 15 12 9 5 7 3 1 1 4 4 3 1 1 3 2 3 4 5
26 23 21 18 30 30 31 32 32 29 30 29 28 27 26 27 27 26 24 25 23 20 15 14 13 11 8 7 5 1 -0 -1 -2 2 4 4 2 1 2 1 1 8 13 16
MSLP
1018.08 1018.72 1018.63 1018.51 1018.66 1018.78 1019.02 1019.41 1019.38 1018.88 1018.72 1019.03 1019.35 1020.10 1021.19 1022.58 1023.42 1024.41 1025.08 1025.36 1025.51 1025.46 1025.53 1025.20 1024.82 1024.44 1023.96 1023.37 1022.73 1022.32 1021.73 1021.50 1020.70 1020.47 1020.96 1021.58 1022.44 1022.83 1022.86 1023.03 1023.26 1023.18 1023.18 1022.75
1018.84 1018.55 1017.87 1018.23 1018.72 1018.99 1019.27 1019.54 1019.57 1019.27 1019.06 1019.32 1019.73 1020.58 1021.95 1023.02 1024.08 1024.76 1025.42 1025.77 1026.00 1026.09 1026.03 1025.82 1025.44 1024.93 1024.48 1024.30 1023.81 1023.18 1022.74 1022.60 1022.27 1021.81 1022.21 1022.70 1023.29 1023.98 1024.21 1024.40 1024.51 1024.62 1024.39 1024.06
1018.17 1017.67 1017.67 1018.23 1018.74 1019.16 1019.37 1019.50 1019.58 1019.63 1019.69 1019.97 1020.54 1021.04 1022.15 1023.49 1024.22 1025.04 1025.77 1026.17 1026.50 1026.56 1026.66 1026.70 1026.36 1025.94 1025.62 1025.24 1024.99 1024.52 1023.98 1023.58 1023.50 1022.99 1022.71 1023.34 1023.86 1024.58 1025.00 1025.52 1025.89 1025.90 1025.74 1025.44
1018.15 1017.38 1017.63 1018.12 1018.34 1018.57 1019.22 1018.83 1019.29 1019.86 1020.60 1021.14 1021.34 1021.97 1022.12 1023.22 1024.28 1024.96 1025.58 1026.40 1026.84 1027.22 1027.02 1027.19 1027.11 1026.88 1026.66 1026.36 1025.73 1025.35 1024.97 1024.76 1024.78 1024.52 1024.35 1024.80 1025.33 1025.97 1026.89 1026.95 1027.06 1026.75 1026.59 1026.56
1017.26 1017.37 1017.58 1017.74 1017.68 1018.21 1018.82 1019.06 1019.82 1020.27 1021.07 1021.75 1022.21 1022.98 1021.99 1023.31 1024.70 1025.67 1026.04 1026.59 1026.78 1026.95 1026.84 1027.06 1027.65 1027.75 1027.69 1027.25 1026.85 1026.40 1025.92 1025.86 1025.81 1025.45 1025.57 1026.02 1026.60 1027.20 1027.36 1027.40 1027.38 1027.40 1027.52 1027.33
1017.19 1017.09 1017.23 1017.14 1017.62 1017.96 1018.85 1019.66 1020.81 1021.70 1022.25 1022.48 1021.96 1022.55 1022.18 1022.86 1023.42 1024.79 1025.77 1026.49 1026.82 1027.22 1027.11 1027.25 1027.26 1027.72 1028.00 1027.72 1027.38 1027.41 1027.02 1027.22 1026.91 1026.63 1026.67 1027.03 1027.39 1027.76 1028.00 1028.12 1028.05 1028.13 1028.15 1028.11
1017.18 1016.96 1016.79 1016.90 1017.73 1018.34 1018.83 1019.94 1021.62 1022.77 1023.46 1022.98 1022.68 1023.09 1020.79 1021.27 1022.59 1023.50 1024.58 1025.85 1026.69 1027.11 1027.30 1027.45 1027.58 1028.12 1028.25 1028.19 1028.06 1027.89 1027.55 1027.70 1027.60 1027.63 1027.72 1027.83 1028.04 1028.59 1028.69 1028.81 1028.97 1028.87 1028.88 1028.85
1016.94 1017.00 1016.35 1016.41 1016.93 1017.65 1018.95 1019.53 1021.05 1022.40 1023.85 1023.52 1023.16 1022.59 1021.27 1021.98 1022.50 1022.85 1023.77 1025.04 1026.23 1026.85 1027.37 1027.75 1027.80 1028.02 1027.99 1028.05 1028.12 1027.97 1028.18 1028.16 1027.96 1028.01 1028.32 1028.40 1028.68 1028.98 1029.13 1029.26 1029.47 1029.47 1029.29 1029.31
1016.09 1016.19 1016.27 1016.46 1016.67 1017.38 1019.19 1019.96 1020.48 1022.37 1024.19 1024.13 1022.39 1021.40 1021.28 1021.95 1022.85 1023.42 1024.16 1024.93 1025.53 1026.21 1027.08 1027.30 1027.58 1027.99 1028.10 1028.14 1028.23 1028.38 1028.41 1028.45 1028.40 1028.58 1028.77 1029.02 1029.21 1029.30 1029.40 1029.55 1029.62 1029.60 1029.69 1029.35
1015.03 1016.21 1016.73 1017.11 1017.19 1017.99 1018.28 1019.45 1020.95 1022.40 1023.95 1023.90 1022.19 1021.79 1020.98 1021.74 1022.50 1023.65 1024.57 1025.49 1025.65 1025.70 1026.41 1027.32 1027.77 1027.94 1027.96 1028.15 1028.32 1028.41 1028.30 1028.45 1028.60 1028.73 1029.00 1029.35 1029.48 1029.47 1029.40 1029.58 1029.97 1029.97 1029.90 1029.77
1014.96 1015.60 1017.65 1017.60 1017.70 1017.94 1019.08 1019.41 1020.51 1021.56 1022.71 1023.14 1022.87 1020.55 1019.48 1020.36 1021.61 1022.98 1023.76 1024.34 1024.96 1025.51 1026.04 1026.73 1027.04 1027.43 1027.67 1028.06 1028.48 1028.63 1028.56 1028.66 1028.82 1028.90 1029.13 1029.18 1029.57 1029.56 1029.67 1029.86 1030.01 1030.02 1029.98 1030.06
1014.65 1015.56 1017.46 1017.51 1017.63 1017.81 1018.08 1018.54 1019.33 1020.88 1022.14 1022.58 1022.48 1019.59 1019.44 1019.70 1020.63 1022.01 1022.86 1023.71 1024.10 1024.74 1025.43 1026.01 1026.53 1027.19 1027.55 1027.73 1028.00 1028.34 1028.68 1028.77 1028.85 1028.91 1029.11 1029.19 1029.36 1029.62 1029.75 1029.95 1029.96 1030.08 1030.22 1030.05
1014.20 1015.55 1017.49 1018.31 1018.73 1018.46 1018.49 1018.68 1018.95 1019.64 1020.55 1021.06 1022.22 1019.80 1019.87 1020.01 1020.84 1021.50 1022.79 1023.17 1023.66 1024.26 1024.92 1025.59 1026.22 1026.65 1027.24 1027.51 1027.66 1028.05 1028.34 1028.38 1028.41 1028.70 1028.99 1029.15 1029.29 1029.51 1029.80 1029.97 1030.05 1030.05 1030.04 1030.00
1013.64 1015.12 1016.10 1017.09 1017.45 1017.90 1019.04 1019.00 1019.14 1019.45 1020.17 1020.35 1019.89 1019.59 1020.07 1020.53 1020.76 1021.57 1022.40 1022.81 1023.37 1023.90 1024.45 1025.05 1025.93 1026.18 1026.49 1026.96 1027.33 1027.62 1027.79 1027.89 1028.09 1028.38 1028.73 1028.87 1029.10 1029.22 1029.46 1029.78 1029.95 1030.14 1030.13 1030.05
1014.67 1015.95 1017.12 1017.83 1018.13 1018.16 1018.45 1018.52 1018.84 1019.26 1019.09 1019.45 1019.12 1019.40 1019.79 1019.99 1020.51 1021.14 1021.85 1022.42 1022.96 1023.60 1024.28 1024.65 1025.22 1025.62 1026.10 1026.63 1026.93 1027.24 1027.50 1027.80 1028.04 1028.40 1028.67 1029.02 1029.39 1029.63 1029.84 1030.06 1030.31 1030.46 1030.35 1030.34
1015.94 1017.47 1018.45 1019.60 1019.76 1019.64 1019.18 1018.65 1019.28 1019.18 1019.18 1019.59 1019.75 1019.10 1019.38 1019.87 1020.40 1021.24 1021.78 1022.36 1022.89 1023.23 1023.62 1024.07 1024.58 1025.21 1025.62 1026.00 1026.24 1026.57 1026.94 1027.22 1027.48 1027.94 1028.51 1029.05 1029.66 1030.25 1030.46 1030.49 1030.53 1030.49 1030.53 1030.54
1016.81 1017.82 1019.29 1020.56 1020.66 1020.30 1019.86 1017.92 1018.61 1019.16 1019.30 1019.34 1019.55 1018.77 1019.97 1020.35 1020.72 1020.97 1021.45 1022.04 1022.49 1022.89 1023.12 1023.50 1023.95 1024.38 1024.88 1025.33 1025.63 1026.13 1026.45 1026.95 1027.60 1027.99 1028.47 1029.05 1029.81 1030.38 1030.62 1030.57 1030.43 1030.40 1030.42 1030.39
1016.80 1018.10 1019.22 1021.14 1021.43 1020.65 1017.79 1017.91 1018.06 1018.72 1019.00 1019.33 1019.79 1019.67 1019.94 1020.53 1020.90 1021.20 1021.63 1021.90 1022.40 1022.55 1022.87 1023.27 1023.52 1023.99 1024.42 1024.83 1025.34 1025.72 1026.31 1027.02 1027.79 1028.49 1028.99 1029.41 1029.93 1030.06 1030.22 1030.38 1030.44 1030.48 1030.51 1030.52
1016.26 1017.45 1019.95 1021.14 1021.25 1019.33 1017.81 1018.43 1018.64 1018.92 1018.76 1019.35 1019.90 1019.82 1020.35 1021.05 1021.45 1021.54 1021.54 1021.65 1021.77 1022.05 1022.24 1022.72 1023.04 1023.35 1023.85 1024.47 1025.07 1025.77 1026.39 1027.12 1027.82 1028.56 1029.20 1029.69 1029.85 1030.07 1030.32 1030.65 1030.68 1030.76 1030.78 1030.70
1017.40 1017.08 1018.25 1020.62 1020.54 1019.64 1017.88 1017.79 1017.93 1018.70 1019.26 1018.85 1019.28 1020.04 1020.49 1021.20 1021.83 1021.32 1021.21 1021.39 1021.54 1021.76 1021.98 1022.50 1022.91 1023.48 1023.84 1024.32 1025.07 1025.80 1026.43 1027.18 1027.87 1028.46 1029.05 1029.58 1029.89 1030.24 1030.71 1030.91 1031.02 1031.05 1031.04 1030.63
1018.90 1018.88 1018.65 1019.38 1019.37 1018.58 1017.97 1018.15 1018.28 1019.19 1019.03 1018.83 1019.53 1019.94 1020.59 1021.15 1020.53 1020.31 1020.69 1020.99 1021.10 1021.38 1021.73 1022.17 1022.68 1023.20 1023.41 1024.10 1024.98 1025.84 1026.51 1027.22 1027.85 1028.56 1029.17 1029.61 1029.91 1030.30 1030.69 1031.04 1031.02 1030.99 1030.83 1030.55
1018.21 1018.93 1019.19 1019.46 1019.58 1018.41 1017.28 1018.45 1018.34 1017.80 1017.89 1018.50 1019.13 1019.19 1019.74 1019.66 1019.82 1020.25 1020.47 1020.76 1021.14 1021.45 1021.67 1021.92 1022.74 1023.12 1023.37 1024.10 1024.90 1025.82 1026.62 1027.27 1028.07 1028.72 1029.22 1029.64 1030.02 1030.43 1030.48 1030.78 1030.78 1030.77 1030.68 1030.46
1017.83 1016.82 1017.48 1017.73 1017.16 1016.43 1016.48 1016.26 1016.25 1016.67 1017.23 1018.30 1018.42 1018.47 1018.65 1019.05 1019.53 1019.70 1019.97 1020.44 1020.72 1021.02 1021.38 1021.80 1022.65 1023.32 1023.82 1024.36 1025.02 1025.92 1026.57 1027.38 1028.13 1028.80 1029.35 1029.62 1029.93 1030.19 1030.31 1030.50 1030.39 1030.45 1030.30 1030.15
1016.66 1016.24 1016.46 1017.14 1016.41 1016.37 1016.44 1016.27 1016.39 1016.61 1017.14 1017.39 1017.60 1017.90 1018.51 1018.96 1018.92 1019.26 1019.58 1020.01 1020.46 1020.77 1021.30 1021.80 1022.79 1023.34 1023.91 1024.50 1025.20 1025.84 1026.75 1027.40 1028.17 1028.86 1029.24 1029.43 1029.65 1029.78 1029.92 1030.02 1029.90 1029.84 1029.73 1029.38
1014.99 1015.24 1015.77 1016.02 1015.96 1016.27 1016.18 1015.98 1015.75 1016.31 1016.83 1017.23 1017.47 1017.79 1018.05 1018.59 1018.58 1019.01 1019.38 1019.89 1020.14 1020.47 1021.06 1021.77 1022.36 1023.03 1023.71 1024.66 1025.58 1026.26 1026.91 1027.51 1028.41 1028.87 1029.14 1029.33 1029.55 1029.69 1029.64 1029.54 1029.29 1028.98 1028.71 1028.30
1013.84 1014.19 1014.79 1014.71 1014.53 1014.64 1014.80 1014.69 1015.12 1016.12 1016.46 1016.63 1017.07 1017.43 1017.61 1018.04 1018.31 1018.81 1019.20 1019.36 1019.85 1020.41 1021.16 1021.95 1022.56 1023.36 1024.26 1024.98 1025.87 1026.57 1027.03 1027.63 1028.42 1028.89 1029.09 1029.19 1029.34 1029.38 1029.33 1029.25 1028.79 1028.28 1027.42 1026.57
Wind_Speed
1 4 9 12 9 3 5 5 5 3 3 3 6 7 4 5 7 7 6 6 6 8 6 7 10 10 11 14 14 15 14 13 8 6 4 7 6 7 10 11 14 14 13 13
4 7 9 4 6 5 3 3 5 5 2 4 4 7 4 5 3 4 6 6 6 5 8 9 10 10 11 10 10 12 13 13 9 5 4 4 4 6 8 8 13 14 14 14
8 6 6 7 4 6 5 6 5 6 2 0 5 6 5 3 4 5 4 3 4 5 6 7 8 10 8 12 11 11 12 13 11 10 5 4 5 5 7 10 9 12 13 13
7 4 6 5 6 7 4 7 5 4 3 4 2 6 4 4 4 4 6 5 5 5 5 6 7 7 8 8 7 9 12 12 11 10 13 15 9 9 4 4 6 8 12 13
7 6 6 5 5 7 5 5 6 3 4 3 2 1 7 4 3 5 6 5 5 5 6 6 5 5 5 7 7 7 10 12 11 11 11 10 11 7 4 5 8 9 9 11
4 1 5 7 3 4 9 6 7 5 3 0 6 7 5 5 4 5 4 6 6 6 5 5 5 4 5 6 7 6 10 10 9 11 12 12 11 8 8 8 8 6 5 7
1 4 2 3 7 2 4 6 2 4 2 6 1 2 9 5 3 8 14 10 8 7 6 6 6 4 4 5 5 5 8 9 7 10 10 9 9 8 9 6 5 6 5 4
8 4 10 6 5 8 6 7 7 8 4 4 2 7 7 2 3 6 11 10 8 7 6 6 6 5 5 6 5 6 6 7 7 8 8 7 7 5 5 6 4 4 4 4
7 4 2 2 3 4 4 4 3 7 2 2 5 5 2 2 1 4 9 9 10 8 8 8 7 6 6 5 5 6 6 6 7 7 6 7 6 6 6 6 5 4 4 5
7 3 1 2 3 5 5 6 4 3 1 6 4 5 6 5 7 6 8 10 8 8 8 6 6 6 5 6 5 5 5 7 6 7 6 5 5 6 5 5 6 6 5 6
6 5 1 4 6 10 3 3 5 5 4 6 3 6 6 7 11 13 12 12 9 9 8 8 7 7 6 5 5 5 6 6 6 6 5 6 5 6 5 5 5 5 4 5
7 6 5 7 3 2 2 7 7 6 6 3 1 8 3 3 11 13 12 10 8 7 9 8 8 7 7 7 6 6 5 6 6 5 5 5 5 4 5 5 5 5 5 5
10 2 3 7 2 2 4 5 3 5 4 8 6 8 3 5 7 8 9 9 8 8 8 7 8 8 8 7 7 7 7 7 6 6 5 4 4 4 5 5 5 5 6 6
5 5 8 10 7 6 5 6 6 6 5 6 14 13 3 4 7 7 8 6 7 7 8 8 7 8 8 7 7 7 7 6 5 4 4 3 3 4 5 5 6 6 6 6
3 4 3 4 3 3 3 7 12 10 14 11 11 14 7 10 9 10 8 6 5 6 7 8 10 9 7 7 6 6 5 4 4 4 4 2 3 4 4 4 4 4 4 5
2 3 4 1 3 4 3 6 6 13 2 3 3 13 7 3 4 5 9 7 8 8 7 8 9 7 8 8 8 6 7 7 6 6 5 4 3 2 1 0 2 2 4 5
7 8 5 4 2 3 10 9 15 6 6 9 12 14 4 5 8 8 8 7 8 8 8 8 10 11 8 8 7 8 7 5 6 6 5 5 4 3 2 1 2 4 5 6
8 6 3 4 2 7 2 2 3 12 7 8 0 5 6 5 4 3 5 6 9 8 7 7 7 7 7 6 7 5 6 7 6 5 4 4 3 1 2 3 4 5 5 7
1 7 5 6 5 8 6 7 9 9 10 10 11 7 5 5 4 4 6 7 7 8 8 7 7 6 6 7 5 6 6 6 5 5 5 3 2 2 4 4 5 5 5 7
3 5 7 5 6 10 2 3 5 6 8 9 8 5 8 6 2 6 5 6 9 8 5 7 7 4 5 6 7 7 6 6 6 5 4 3 3 3 2 4 4 2 4 8
3 2 10 6 6 8 6 5 4 7 9 4 7 6 8 6 7 6 3 5 7 7 9 6 6 8 9 6 7 7 6 6 5 5 4 3 2 1 3 3 2 2 5 7
9 9 5 3 4 11 8 5 10 6 2 6 7 7 9 9 7 7 8 6 7 9 8 7 6 7 4 7 8 7 6 6 5 4 3 2 1 3 2 2 3 3 4 6
3 8 9 11 8 1 14 5 9 6 6 7 7 7 11 9 8 8 7 8 9 9 9 4 6 5 4 6 6 7 6 6 5 4 2 1 2 3 2 2 5 3 3 4
5 5 3 4 4 6 9 5 3 6 8 6 7 7 7 7 8 7 7 7 8 6 7 4 6 7 7 6 6 4 7 5 5 3 2 2 2 3 3 4 4 3 4 5
5 8 7 2 1 3 7 8 9 8 7 5 5 8 9 8 8 8 7 7 8 6 4 5 8 8 7 8 6 5 6 6 4 3 3 3 3 3 4 5 5 5 6 8
6 7 6 5 8 7 6 8 10 8 9 10 9 6 6 9 10 7 8 8 5 5 4 4 4 5 5 6 6 5 5 6 4 3 3 3 3 2 4 4 6 11 16 17
Wind_Direction
23 123 208 197 200 161 136 172 213 261 201 216 240 259 3 47 66 73 66 60 51 43 354 13 16 15 18 23 25 24 26 13 30 38 49 49 57 39 44 43 38 35 29 30
54 230 230 157 162 177 156 169 246 278 283 182 307 279 67 41 55 103 116 91 72 51 23 17 16 23 28 27 25 31 39 31 25 34 49 76 79 53 56 43 39 29 29 29
176 214 132 165 164 157 202 183 193 214 338 338 333 291 189 63 106 89 69 86 69 73 55 18 18 20 16 28 16 27 32 40 32 41 67 65 60 52 37 31 32 28 30 33
233 253 175 175 197 147 212 206 161 168 125 228 34 283 288 185 153 143 140 128 111 74 60 34 22 27 14 13 13 35 42 44 40 41 65 66 74 77 37 48 37 37 35 34
235 179 185 188 199 159 216 116 142 127 115 67 294 243 258 115 221 216 197 165 145 139 120 95 46 35 11 12 20 23 53 51 47 53 64 75 77 74 62 54 54 40 32 35
231 235 179 201 101 159 144 81 46 45 91 313 225 175 271 186 212 167 175 183 174 168 144 130 115 75 42 29 40 33 63 54 51 61 65 73 77 73 65 48 49 31 23 26
157 210 194 152 92 56 111 104 331 343 1 230 107 163 242 165 176 190 180 183 183 182 174 155 125 104 78 65 59 67 75 67 61 72 69 70 73 71 72 63 51 40 24 20
169 201 170 185 189 168 179 164 161 214 204 259 316 234 270 306 305 217 162 162 170 181 185 179 149 151 138 116 98 84 85 88 75 80 75 71 73 73 72 62 53 48 39 25
158 255 67 73 126 126 188 186 157 103 54 34 233 275 261 82 46 122 147 160 183 182 192 182 175 173 153 135 125 121 108 92 83 86 84 71 74 77 72 59 56 46 25 20
205 98 48 130 89 37 138 158 86 2 196 262 273 272 240 220 203 172 178 203 204 194 182 182 188 180 173 155 144 142 134 126 119 109 106 104 94 84 81 72 54 39 20 14
152 112 247 122 202 171 138 175 68 121 141 179 278 250 208 211 176 186 203 208 201 199 183 188 190 189 174 165 171 161 147 135 128 122 118 101 84 66 61 56 39 27 15 5
192 131 162 196 131 98 168 183 156 157 218 256 195 257 24 251 175 181 203 207 201 187 189 190 186 182 185 188 181 180 170 161 161 144 123 105 84 63 53 44 32 23 12 5
180 189 77 354 38 28 205 193 158 102 78 191 163 264 7 81 156 195 196 207 191 196 193 188 184 189 197 197 186 185 188 184 167 151 135 110 74 50 34 27 21 19 4 356
117 142 164 202 184 139 181 201 187 157 176 175 232 258 178 199 198 193 215 193 204 205 199 194 187 199 203 197 195 199 205 195 172 156 142 121 65 38 29 20 16 7 356 351
130 183 103 46 70 93 207 196 186 189 219 208 246 232 183 206 205 203 192 205 206 222 210 204 203 208 199 205 211 215 220 201 179 173 170 149 64 50 45 33 2 339 350 353
19 157 119 30 358 40 271 234 187 221 177 223 228 260 173 191 196 182 217 217 235 237 226 213 209 195 203 206 208 204 215 207 179 181 177 144 119 96 97 279 322 350 347 340
152 136 119 231 59 42 280 188 197 179 197 172 213 237 142 197 212 217 232 223 225 234 230 209 203 202 203 207 201 209 207 174 171 165 157 147 131 177 191 359 5 1 345 338
134 108 67 135 54 228 224 94 108 212 241 215 322 223 192 168 178 199 207 203 225 227 226 219 204 205 217 211 204 173 159 163 157 160 155 146 154 118 26 15 1 349 346 335
133 128 124 161 197 316 250 185 164 168 244 196 209 226 152 129 125 257 228 211 216 212 210 207 200 195 186 192 170 156 153 152 150 171 163 151 89 54 13 357 344 338 324 315
42 42 177 139 183 219 338 158 141 120 279 221 190 183 152 122 143 249 199 206 224 219 203 201 193 184 189 199 160 155 167 163 180 162 142 112 93 76 355 327 317 290 293 302
90 45 199 183 219 276 205 183 164 118 240 178 172 174 149 179 193 216 195 231 217 205 204 194 181 205 217 153 154 177 157 188 144 129 132 129 86 70 301 269 278 283 296 297
156 161 192 117 193 260 156 84 166 200 141 171 187 181 183 202 220 222 226 235 226 216 212 209 201 220 176 158 162 169 178 134 132 142 147 123 26 301 295 253 274 270 273 286
221 184 179 188 203 35 185 175 202 165 147 203 193 201 198 196 217 225 227 220 225 214 225 185 200 183 165 159 159 167 157 144 142 135 163 222 295 293 292 273 291 294 257 266
240 160 180 114 193 201 210 240 259 185 211 208 216 209 178 209 225 240 234 226 218 215 227 183 166 196 193 171 155 137 145 136 130 157 235 274 266 298 288 289 275 251 257 267
194 129 146 275 266 67 276 232 229 213 225 232 209 213 211 207 245 226 242 233 229 223 181 177 196 205 190 152 144 142 139 134 150 184 242 253 249 255 282 268 260 260 254 249
176 150 165 204 201 175 212 207 213 211 220 227 223 240 226 198 231 215 233 231 219 217 160 174 161 137 143 145 151 156 146 153 157 199 214 225 245 244 272 280 288 286 287 288